Tracking 22440 objects as of 27-Feb-2021
HD Live streaming from Space Station
objects crossing your sky now

FREGAT DEB

Track FREGAT DEB now!
10-day predictions


NORAD ID: 45814
Int'l Code: 2011-037AY
Perigee: 863.8 km
Apogee: 3,233.2 km
Inclination: 51.2 °
Period: 128.1 minutes
Semi major axis: 8419 km
RCS: Unknown
Launch date: July 18, 2011
Source: Commonwealth of Independent States (former USSR) (CIS)
Launch site: TYURATAM MISSILE AND SPACE COMPLEX (TTMTR)

Note: This is SATELLITE DEBRIS
aabbcc
Your satellite tracking list
Your tracking list is empty




NASA's NSSDC Master Catalog

Two Line Element Set (TLE):
1 45814U 11037AY  21057.78649797 -.00026197  00000-0 -85204-1 0  9993
2 45814  51.2291  83.8269 1407110 183.5654 175.4161 11.23764780 30238
Source of the keplerian elements: AFSPC